Wauseon Fulton County Airport, OH

9:58 PM EDT on March 25, 2017 (GMT -0400)
Fulton County

Weather History for KUSE - May, 2014

Change the Weather History Date:

Thursday, May 15, 2014

  Actual Average (KTOL) Record (KTOL)
Temperature  
Mean Temperature 50 °F -  
Max Temperature 60 °F 70 °F 92 °F (1962)
Min Temperature 41 °F 46 °F 34 °F (1964)
Degree Days  
Heating Degree Days 14    
Moisture  
Dew Point 49 °F    
Average Humidity 90    
Maximum Humidity 100    
Minimum Humidity 76    
Precipitation  
Precipitation 0.00 in - - ()
Sea Level Pressure  
Sea Level Pressure 29.84 in    
Wind  
Wind Speed 14 mph (WSW)    
Max Wind Speed 21 mph    
Max Gust Speed 29 mph    
Visibility 7 miles    
Events Rain    
Averages and records for this station are not official NWS values.
T = Trace of Precipitation, MM = Missing Value Source: NWS Daily Summary

Daily Weather History Graph

Daily Weather History Graph

Search for Another Location

Airport or City:

Trip Planner

Search our weather history database for the weather conditions in past years. The results will help you decide how hot, cold, wet, or windy it might be!

Date:

Astronomy

May. 15, 2014 Rise Set
Actual Time 6:17 AM EDT 8:49 PM EDT
Civil Twilight 5:45 AM EDT 9:21 PM EDT
Nautical Twilight 5:06 AM EDT 10:00 PM EDT
Astronomical Twilight 4:21 AM EDT 10:45 PM EDT
Moon 9:56 PM EDT (5/15) 7:03 AM EDT (5/15)
Length of Visible Light 15h 35m
Length of Day
14h 32m
Full, 99% of the Moon is Illuminated
May 15
Full
May 21
Last Quarter
May 28
New
Jun 5
First Quarter
Jun 13
Full

Hourly Weather History & Observations

Time (EDT) Temp. Windchill Dew Point Humidity Pressure Visibility Wind Dir Wind Speed Gust Speed Precip Events Conditions
12:15 AM 53.6 °F - 53.6 °F 100% 29.89 in 5.0 mi ENE 16.1 mph 24.2 mph N/A   Light Drizzle
12:35 AM 53.6 °F - 53.6 °F 100% 29.87 in 8.0 mi ENE 19.6 mph 26.5 mph N/A   Overcast
12:55 AM 53.6 °F - 53.6 °F 100% 29.88 in 5.0 mi NE 13.8 mph - N/A   Light Drizzle
1:15 AM 53.6 °F - 53.6 °F 100% 29.87 in 6.0 mi ENE 16.1 mph - N/A   Light Drizzle
1:35 AM 51.8 °F - 51.8 °F 100% 29.87 in 4.0 mi ENE 12.7 mph - N/A Rain Light Rain
1:55 AM 51.8 °F - 51.8 °F 100% 29.86 in 4.0 mi ENE 11.5 mph - N/A Rain Light Rain
2:15 AM 51.8 °F - 51.8 °F 100% 29.84 in 4.0 mi ENE 12.7 mph - N/A Rain Light Rain
2:35 AM 51.8 °F - 51.8 °F 100% 29.83 in 4.0 mi ENE 13.8 mph - N/A   Light Drizzle
2:55 AM 51.8 °F - 51.8 °F 100% 29.81 in 4.0 mi ENE 13.8 mph - N/A Rain Light Rain
3:15 AM 51.8 °F - 51.8 °F 100% 29.80 in 3.0 mi ENE 8.1 mph - N/A Rain Light Rain
3:35 AM 51.8 °F - 51.8 °F 100% 29.78 in 4.0 mi ENE 8.1 mph - N/A Rain Light Rain
3:55 AM 51.8 °F - 51.8 °F 100% 29.77 in 4.0 mi East 10.4 mph - N/A   Light Drizzle
4:15 AM 53.6 °F - 53.6 °F 100% 29.76 in 3.0 mi East 8.1 mph - N/A   Overcast
4:35 AM 53.6 °F - 53.6 °F 100% 29.75 in 3.0 mi East 10.4 mph - N/A   Light Drizzle
4:55 AM 53.6 °F - 53.6 °F 100% 29.73 in 2.0 mi ENE 6.9 mph 12.7 mph N/A   Light Drizzle
5:15 AM 55.4 °F - 55.4 °F 100% 29.73 in 2.0 mi East 6.9 mph - N/A   Overcast
5:55 AM 57.2 °F - 57.2 °F 100% 29.71 in 2.0 mi ESE 8.1 mph - N/A   Light Drizzle
6:15 AM 57.2 °F - 57.2 °F 100% 29.71 in 2.0 mi SE 10.4 mph - N/A Rain Light Rain
6:35 AM 59.0 °F - 59.0 °F 100% 29.70 in 3.0 mi SE 13.8 mph - N/A Rain Light Rain
6:55 AM 59.0 °F - 59.0 °F 100% 29.69 in 2.5 mi SE 12.7 mph - N/A   Overcast
7:15 AM 60.8 °F - 60.8 °F 100% 29.69 in 3.0 mi SSE 11.5 mph - N/A Rain Light Rain
7:55 AM 60.8 °F - 60.8 °F 100% 29.70 in 2.0 mi SW 11.5 mph - N/A   Mostly Cloudy
8:15 AM 60.8 °F - 60.8 °F 100% 29.70 in 1.2 mi SW 9.2 mph 16.1 mph N/A Rain Light Rain
8:35 AM 59.0 °F - 59.0 °F 100% 29.71 in 2.5 mi SW 10.4 mph 16.1 mph N/A Rain Light Rain
8:55 AM 57.2 °F - 57.2 °F 100% 29.72 in 1.8 mi SW 11.5 mph 20.7 mph N/A   Overcast
9:15 AM 57.2 °F - 55.4 °F 94% 29.72 in 10.0 mi SW 17.3 mph 24.2 mph N/A   Overcast
9:35 AM 55.4 °F - 55.4 °F 100% 29.72 in 10.0 mi SW 16.1 mph 24.2 mph N/A   Overcast
9:55 AM 55.4 °F - 55.4 °F 100% 29.72 in 10.0 mi SW 16.1 mph - N/A   Overcast
10:15 AM 55.4 °F - 55.4 °F 100% 29.73 in 8.0 mi SW 15.0 mph 21.9 mph N/A   Overcast
10:35 AM 55.4 °F - 53.6 °F 94% 29.74 in 10.0 mi SW 16.1 mph - N/A   Overcast
10:55 AM 55.4 °F - 51.8 °F 88% 29.75 in 10.0 mi WSW 17.3 mph 23.0 mph N/A   Overcast
11:15 AM 55.4 °F - 51.8 °F 88% 29.75 in 10.0 mi WSW 17.3 mph - N/A   Overcast
11:35 AM 55.4 °F - 51.8 °F 88% 29.76 in 10.0 mi SW 13.8 mph 26.5 mph N/A   Overcast
11:55 AM 57.2 °F - 50.0 °F 77% 29.76 in 10.0 mi WSW 18.4 mph 24.2 mph N/A   Overcast
12:15 PM 55.4 °F - 51.8 °F 88% 29.77 in 10.0 mi WSW 17.3 mph 27.6 mph N/A   Overcast
12:35 PM 55.4 °F - 50.0 °F 82% 29.78 in 10.0 mi WSW 20.7 mph 28.8 mph N/A   Overcast
12:55 PM 53.6 °F - 50.0 °F 88% 29.80 in 10.0 mi WSW 18.4 mph 27.6 mph N/A   Overcast
1:15 PM 53.6 °F - 48.2 °F 82% 29.80 in 10.0 mi WSW 16.1 mph 26.5 mph N/A   Overcast
1:35 PM 53.6 °F - 48.2 °F 82% 29.81 in 10.0 mi WSW 17.3 mph - N/A   Overcast
1:55 PM 53.6 °F - 48.2 °F 82% 29.82 in 10.0 mi WSW 13.8 mph - N/A   Overcast
2:15 PM 53.6 °F - 48.2 °F 82% 29.82 in 10.0 mi SW 13.8 mph 21.9 mph N/A   Overcast
2:55 PM 51.8 °F - 48.2 °F 88% 29.83 in 8.0 mi WSW 13.8 mph - N/A   Overcast
3:15 PM 51.8 °F - 50.0 °F 94% 29.84 in 4.0 mi West 12.7 mph 18.4 mph N/A   Overcast
3:35 PM 51.8 °F - 50.0 °F 94% 29.85 in 5.0 mi West 12.7 mph - N/A   Overcast
3:55 PM 51.8 °F - 50.0 °F 94% 29.85 in 6.0 mi West 12.7 mph - N/A   Overcast
4:15 PM 51.8 °F - 48.2 °F 88% 29.86 in 10.0 mi West 11.5 mph 19.6 mph N/A   Overcast
4:35 PM 51.8 °F - 46.4 °F 82% 29.87 in 10.0 mi WNW 15.0 mph 25.3 mph N/A   Overcast
4:55 PM 50.0 °F - 46.4 °F 87% 29.88 in 10.0 mi West 18.4 mph 25.3 mph N/A   Overcast
5:15 PM 50.0 °F - 46.4 °F 87% 29.89 in 10.0 mi West 16.1 mph 25.3 mph N/A   Mostly Cloudy
5:35 PM 50.0 °F - 44.6 °F 82% 29.90 in 10.0 mi West 15.0 mph - N/A   Overcast
5:55 PM 48.2 °F - 42.8 °F 82% 29.92 in 10.0 mi West 18.4 mph 24.2 mph N/A   Overcast
6:15 PM 48.2 °F - 41.0 °F 76% 29.92 in 10.0 mi West 20.7 mph 26.5 mph N/A   Overcast
6:35 PM 48.2 °F - 41.0 °F 76% 29.93 in 10.0 mi West 17.3 mph - N/A   Overcast
6:55 PM 46.4 °F 39.8 °F 41.0 °F 81% 29.95 in 10.0 mi West 16.1 mph - N/A   Overcast
7:15 PM 46.4 °F 39.5 °F 39.2 °F 76% 29.96 in 10.0 mi West 17.3 mph 23.0 mph N/A   Overcast
7:35 PM 44.6 °F 37.4 °F 39.2 °F 81% 29.97 in 10.0 mi West 16.1 mph 23.0 mph N/A   Overcast
7:55 PM 44.6 °F 37.4 °F 39.2 °F 81% 29.98 in 10.0 mi WNW 16.1 mph 23.0 mph N/A   Overcast
8:15 PM 44.6 °F 37.8 °F 39.2 °F 81% 29.99 in 10.0 mi WNW 15.0 mph 24.2 mph N/A   Overcast
8:35 PM 44.6 °F 37.2 °F 37.4 °F 76% 30.00 in 10.0 mi WNW 17.3 mph 24.2 mph N/A   Overcast
8:55 PM 44.6 °F 36.9 °F 37.4 °F 76% 30.00 in 10.0 mi WNW 18.4 mph 28.8 mph N/A   Overcast
9:15 PM 44.6 °F 38.4 °F 37.4 °F 76% 30.01 in 10.0 mi WNW 12.7 mph 20.7 mph N/A   Overcast
9:35 PM 44.6 °F 39.2 °F 37.4 °F 76% 30.02 in 10.0 mi WNW 10.4 mph - N/A   Mostly Cloudy
9:55 PM 42.8 °F 38.0 °F 37.4 °F 81% 30.02 in 10.0 mi WNW 8.1 mph - N/A   Clear
10:15 PM 42.8 °F 39.3 °F 37.4 °F 81% 30.02 in 10.0 mi WNW 5.8 mph - N/A   Clear
10:35 PM 42.8 °F 38.6 °F 37.4 °F 81% 30.02 in 10.0 mi WNW 6.9 mph - N/A   Clear
10:55 PM 41.0 °F 38.0 °F 37.4 °F 87% 30.02 in 10.0 mi West 4.6 mph - N/A   Clear
11:15 PM 41.0 °F 38.0 °F 37.4 °F 87% 30.03 in 10.0 mi WSW 4.6 mph - N/A   Partly Cloudy
11:35 PM 41.0 °F 36.4 °F 37.4 °F 87% 30.02 in 10.0 mi West 6.9 mph - N/A   Partly Cloudy
11:55 PM 41.0 °F 35.2 °F 37.4 °F 87% 30.02 in 10.0 mi West 9.2 mph - N/A   Clear